SHT2K EGLL-EGCC

Flight info

Callsign SHT2K
Flight time 0h 34m
Altitude 18000
Route ULTIB T420 ELVOS
Aircraft A320/M-SDE3FGHIRWY/LB1

Departure

Time 2026-05-05 08:12
Airport London Heathrow Airport (EGLL)

Arrival

Time 2026-05-05 08:46
Airport Manchester Airport (EGCC)
Time Latitude Longitude Altitude Speed Heading
2026-05-05 07:43 51.46931 -0.48715 89 ft 0 kts 359°
2026-05-05 08:03 51.46917 -0.48715 90 ft 4 kts 359°
2026-05-05 08:03 51.46895 -0.48715 86 ft 3 kts 358°
2026-05-05 08:04 51.46878 -0.48704 86 ft 4 kts 281°
2026-05-05 08:04 51.46877 -0.48666 86 ft 2 kts 269°
2026-05-05 08:04 51.46877 -0.48662 86 ft 0 kts 269°
2026-05-05 08:08 51.46877 -0.48673 89 ft 2 kts 269°
2026-05-05 08:08 51.46876 -0.48716 86 ft 5 kts 266°
2026-05-05 08:08 51.46844 -0.48750 90 ft 7 kts 187°
2026-05-05 08:09 51.46784 -0.48749 86 ft 10 kts 179°
2026-05-05 08:09 51.46704 -0.48748 87 ft 13 kts 180°
2026-05-05 08:09 51.46625 -0.48754 89 ft 11 kts 192°
2026-05-05 08:09 51.46595 -0.48769 88 ft 1 kts 199°
2026-05-05 08:10 51.46580 -0.48778 89 ft 4 kts 198°
2026-05-05 08:10 51.46547 -0.48789 89 ft 6 kts 183°
2026-05-05 08:10 51.46498 -0.48759 89 ft 9 kts 139°
2026-05-05 08:10 51.46478 -0.48654 88 ft 12 kts 90°
2026-05-05 08:11 51.46478 -0.48503 86 ft 20 kts 90°
2026-05-05 08:11 51.46481 -0.47862 87 ft 94 kts 90°
2026-05-05 08:11 51.46486 -0.46481 90 ft 150 kts 90°
2026-05-05 08:11 51.46484 -0.44697 550 ft 157 kts 89°
2026-05-05 08:12 51.46483 -0.42970 1267 ft 155 kts 89°
2026-05-05 08:12 51.46645 -0.41182 1631 ft 172 kts 68°
2026-05-05 08:12 51.47296 -0.39441 1939 ft 194 kts 50°
2026-05-05 08:12 51.48224 -0.37700 2298 ft 215 kts 52°
2026-05-05 08:13 51.49240 -0.35755 2721 ft 239 kts 50°
2026-05-05 08:13 51.50335 -0.33654 3521 ft 249 kts 49°
2026-05-05 08:13 51.51461 -0.31498 4494 ft 254 kts 49°
2026-05-05 08:13 51.52467 -0.29138 5389 ft 261 kts 64°
2026-05-05 08:14 51.53134 -0.26375 5842 ft 267 kts 63°
2026-05-05 08:14 51.54230 -0.24020 6108 ft 266 kts 38°
2026-05-05 08:14 51.55847 -0.22692 6961 ft 266 kts 14°
2026-05-05 08:14 51.57692 -0.22500 7862 ft 269 kts 350°
2026-05-05 08:15 51.59516 -0.23298 8714 ft 274 kts 346°
2026-05-05 08:15 51.61379 -0.24044 9562 ft 278 kts 343°
2026-05-05 08:15 51.63178 -0.25299 10252 ft 290 kts 333°
2026-05-05 08:15 51.65017 -0.26914 10543 ft 312 kts 331°
2026-05-05 08:16 51.66938 -0.28706 11102 ft 323 kts 329°
2026-05-05 08:16 51.68890 -0.30583 11808 ft 329 kts 329°
2026-05-05 08:16 51.70863 -0.32504 12517 ft 333 kts 328°
2026-05-05 08:16 51.72862 -0.34456 13229 ft 338 kts 328°
2026-05-05 08:17 51.74883 -0.36431 13922 ft 342 kts 328°
2026-05-05 08:17 51.76933 -0.38430 14635 ft 346 kts 329°
2026-05-05 08:17 51.79005 -0.40442 15288 ft 350 kts 329°
2026-05-05 08:17 51.81099 -0.42472 15930 ft 353 kts 329°
2026-05-05 08:18 51.83189 -0.44498 16552 ft 357 kts 329°
2026-05-05 08:18 51.85341 -0.46587 17172 ft 361 kts 329°
2026-05-05 08:18 51.87506 -0.48689 17748 ft 365 kts 329°
2026-05-05 08:18 51.89692 -0.50812 17952 ft 367 kts 329°
2026-05-05 08:19 51.91875 -0.52935 17993 ft 363 kts 329°
2026-05-05 08:19 51.94039 -0.55043 18001 ft 362 kts 328°
2026-05-05 08:19 51.96167 -0.57116 17993 ft 361 kts 329°
2026-05-05 08:19 51.98321 -0.59214 17995 ft 361 kts 328°
2026-05-05 08:20 52.00472 -0.61316 17997 ft 361 kts 328°
2026-05-05 08:20 52.02624 -0.63426 17994 ft 362 kts 327°
2026-05-05 08:20 52.04777 -0.65545 17999 ft 361 kts 327°
2026-05-05 08:20 52.06919 -0.67657 17999 ft 359 kts 327°
2026-05-05 08:21 52.09049 -0.69756 17997 ft 358 kts 327°
2026-05-05 08:21 52.11182 -0.71853 17998 ft 358 kts 327°
2026-05-05 08:21 52.13313 -0.73947 18004 ft 358 kts 327°
2026-05-05 08:21 52.15451 -0.76050 18005 ft 358 kts 327°
2026-05-05 08:22 52.17580 -0.78152 18002 ft 358 kts 327°
2026-05-05 08:22 52.19710 -0.80258 18001 ft 358 kts 327°
2026-05-05 08:22 52.21839 -0.82365 18008 ft 358 kts 327°
2026-05-05 08:22 52.23968 -0.84470 18015 ft 358 kts 327°
2026-05-05 08:23 52.26100 -0.86582 18016 ft 358 kts 327°
2026-05-05 08:23 52.28226 -0.88694 18010 ft 358 kts 327°
2026-05-05 08:23 52.30350 -0.90808 18014 ft 358 kts 327°
2026-05-05 08:23 52.32479 -0.92926 18016 ft 358 kts 327°
2026-05-05 08:24 52.34572 -0.95011 18026 ft 358 kts 327°
2026-05-05 08:24 52.36697 -0.97131 18024 ft 357 kts 327°
2026-05-05 08:24 52.38822 -0.99249 18022 ft 357 kts 327°
2026-05-05 08:24 52.40942 -1.01370 18022 ft 357 kts 327°
2026-05-05 08:25 52.43062 -1.03497 18016 ft 358 kts 327°
2026-05-05 08:25 52.45186 -1.05628 18017 ft 358 kts 327°
2026-05-05 08:25 52.47308 -1.07759 18021 ft 358 kts 327°
2026-05-05 08:25 52.49432 -1.09890 18014 ft 358 kts 327°
2026-05-05 08:26 52.51554 -1.12018 18029 ft 358 kts 327°
2026-05-05 08:26 52.53677 -1.14147 18017 ft 358 kts 327°
2026-05-05 08:26 52.55801 -1.16283 18032 ft 358 kts 327°
2026-05-05 08:26 52.57920 -1.18425 18033 ft 357 kts 327°
2026-05-05 08:27 52.60037 -1.20567 18036 ft 357 kts 327°
2026-05-05 08:27 52.62158 -1.22713 18036 ft 357 kts 327°
2026-05-05 08:27 52.64274 -1.24858 18037 ft 357 kts 327°
2026-05-05 08:27 52.66395 -1.27015 18040 ft 357 kts 327°
2026-05-05 08:28 52.68511 -1.29164 18043 ft 357 kts 327°
2026-05-05 08:28 52.70629 -1.31309 18044 ft 357 kts 327°
2026-05-05 08:28 52.72720 -1.33426 18043 ft 357 kts 327°
2026-05-05 08:28 52.74833 -1.35570 18042 ft 357 kts 327°
2026-05-05 08:29 52.76951 -1.37724 18043 ft 357 kts 327°
2026-05-05 08:29 52.79061 -1.39880 18037 ft 356 kts 327°
2026-05-05 08:29 52.81144 -1.42012 17760 ft 347 kts 327°
2026-05-05 08:30 52.85227 -1.46199 16808 ft 343 kts 327°
2026-05-05 08:30 52.87252 -1.48276 16395 ft 340 kts 327°
2026-05-05 08:30 52.89253 -1.50329 15947 ft 337 kts 327°
2026-05-05 08:30 52.91241 -1.52371 15530 ft 334 kts 326°
2026-05-05 08:31 52.93177 -1.54364 15131 ft 330 kts 326°
2026-05-05 08:31 52.95120 -1.56369 14742 ft 327 kts 326°
2026-05-05 08:31 52.97067 -1.58376 14339 ft 324 kts 326°
2026-05-05 08:31 52.98950 -1.60321 13949 ft 322 kts 326°
2026-05-05 08:32 53.00864 -1.62300 13550 ft 319 kts 326°
2026-05-05 08:32 53.02716 -1.64214 13163 ft 316 kts 326°
2026-05-05 08:32 53.04570 -1.66149 12755 ft 313 kts 323°
2026-05-05 08:32 53.06192 -1.68516 12373 ft 309 kts 310°
2026-05-05 08:33 53.07586 -1.71213 11979 ft 306 kts 309°
2026-05-05 08:33 53.08970 -1.73896 11600 ft 304 kts 309°
2026-05-05 08:33 53.10338 -1.76542 11356 ft 297 kts 309°
2026-05-05 08:33 53.11666 -1.79111 11166 ft 290 kts 309°
2026-05-05 08:34 53.12978 -1.81657 10818 ft 288 kts 309°
2026-05-05 08:34 53.14279 -1.84188 10460 ft 287 kts 309°
2026-05-05 08:34 53.15572 -1.86711 10103 ft 286 kts 309°
2026-05-05 08:34 53.16863 -1.89227 9735 ft 285 kts 309°
2026-05-05 08:35 53.18150 -1.91740 9397 ft 284 kts 309°
2026-05-05 08:35 53.19431 -1.94245 9044 ft 283 kts 309°
2026-05-05 08:35 53.20706 -1.96737 8734 ft 281 kts 310°
2026-05-05 08:35 53.21957 -1.99177 8606 ft 272 kts 310°
2026-05-05 08:36 53.23353 -2.01261 8277 ft 272 kts 331°
2026-05-05 08:36 53.25172 -2.02094 7912 ft 274 kts 355°
2026-05-05 08:36 53.27086 -2.02107 7524 ft 276 kts 360°
2026-05-05 08:36 53.29001 -2.02019 7192 ft 276 kts
2026-05-05 08:37 53.30917 -2.01916 6900 ft 274 kts
2026-05-05 08:37 53.32818 -2.01782 6590 ft 273 kts
2026-05-05 08:37 53.34706 -2.01567 6273 ft 272 kts
2026-05-05 08:37 53.36490 -2.00707 5959 ft 271 kts 20°
2026-05-05 08:38 53.38239 -1.99535 5639 ft 270 kts 21°
2026-05-05 08:38 53.39946 -1.98354 5505 ft 259 kts 21°
2026-05-05 08:38 53.41579 -1.97225 5388 ft 249 kts 21°
2026-05-05 08:38 53.43166 -1.96121 5267 ft 243 kts 21°
2026-05-05 08:39 53.44699 -1.95047 5137 ft 234 kts 21°
2026-05-05 08:39 53.46169 -1.94005 5014 ft 224 kts 21°
2026-05-05 08:39 53.47597 -1.92991 4903 ft 216 kts 21°
2026-05-05 08:39 53.48976 -1.92266 4774 ft 203 kts 357°
2026-05-05 08:40 53.50209 -1.93068 4617 ft 190 kts 311°
2026-05-05 08:40 53.50646 -1.95066 4366 ft 188 kts 265°
2026-05-05 08:40 53.50304 -1.97191 4079 ft 192 kts 243°
2026-05-05 08:40 53.49401 -1.98856 3784 ft 196 kts 221°
2026-05-05 08:41 53.48396 -2.00393 3554 ft 192 kts 232°
2026-05-05 08:41 53.47574 -2.02076 3503 ft 181 kts 234°
2026-05-05 08:41 53.46815 -2.03669 3455 ft 169 kts 235°
2026-05-05 08:41 53.46091 -2.05188 3304 ft 164 kts 235°
2026-05-05 08:42 53.45378 -2.06680 3111 ft 163 kts 235°
2026-05-05 08:42 53.44666 -2.08167 2908 ft 163 kts 236°
2026-05-05 08:42 53.43955 -2.09650 2692 ft 163 kts 234°
2026-05-05 08:42 53.43259 -2.11104 2482 ft 159 kts 235°
2026-05-05 08:43 53.42574 -2.12533 2260 ft 154 kts 234°
2026-05-05 08:43 53.41921 -2.13892 2071 ft 147 kts 234°
2026-05-05 08:43 53.41288 -2.15210 1885 ft 143 kts 235°
2026-05-05 08:43 53.40671 -2.16494 1703 ft 140 kts 234°
2026-05-05 08:44 53.40268 -2.17334 1577 ft 139 kts 234°
2026-05-05 08:44 53.39666 -2.18586 1389 ft 138 kts 234°
2026-05-05 08:44 53.39068 -2.19830 1208 ft 137 kts 234°
2026-05-05 08:44 53.38470 -2.21073 1024 ft 136 kts 234°
2026-05-05 08:45 53.37875 -2.22307 844 ft 136 kts 233°
2026-05-05 08:45 53.37282 -2.23539 663 ft 136 kts 233°
2026-05-05 08:45 53.36694 -2.24769 464 ft 135 kts 234°
2026-05-05 08:45 53.36104 -2.25991 310 ft 135 kts 232°
2026-05-05 08:46 53.35550 -2.27144 252 ft 108 kts 231°
2026-05-05 08:46 53.35270 -2.27756 238 ft 28 kts 250°
2026-05-05 08:46 53.35255 -2.27911 237 ft 19 kts 259°
2026-05-05 08:46 53.35236 -2.28100 231 ft 8 kts 260°
2026-05-05 08:47 53.35243 -2.28210 231 ft 11 kts 308°
2026-05-05 08:47 53.35305 -2.28209 233 ft 9 kts 23°
2026-05-05 08:47 53.35347 -2.28183 234 ft 5 kts 17°
2026-05-05 08:47 53.35381 -2.28168 236 ft 5 kts 14°
2026-05-05 08:48 53.35421 -2.28156 236 ft 7 kts
2026-05-05 08:48 53.35487 -2.28130 236 ft 13 kts 22°
2026-05-05 08:48 53.35552 -2.28046 237 ft 11 kts 46°
2026-05-05 08:48 53.35565 -2.28021 237 ft 0 kts 49°
2026-05-05 08:49 53.35566 -2.28020 237 ft 1 kts 49°
2026-05-05 08:49 53.35603 -2.27946 239 ft 11 kts 52°
2026-05-05 08:49 53.35655 -2.27836 242 ft 12 kts 52°
2026-05-05 08:50 53.35706 -2.27727 246 ft 12 kts 51°
2026-05-05 08:50 53.35766 -2.27651 251 ft 9 kts 10°
2026-05-05 08:50 53.35821 -2.27642 255 ft 7 kts
2026-05-05 08:50 53.35880 -2.27633 255 ft 10 kts